QPF
0.01 0.01 0.01 0.01 0.00 0.00 0.00 0.00 0.00 0.00 0.00 0.00 0.00 0.00 0.00 0.00 0.00 0.00 0.00 0.00 0.00 0.00 0.00 0.01 0.01 0.02 0.02 0.01 0.00 0.00 0.00 0.00 0.00 0.01 0.01 0.00 0.00 0.00 0.00 0.00 0.00 0.00 0.00 0.00 0.01 0.01 0.01 0.01 0.01
0.01 0.01 0.01 0.00 0.00 0.00 0.00 0.00 0.00 0.00 0.00 0.00 0.00 0.00 0.00 0.00 0.00 0.00 0.00 0.00 0.00 0.00 0.00 0.01 0.01 0.02 0.01 0.01 0.01 0.01 0.00 0.00 0.00 0.01 0.01 0.01 0.01 0.00 0.00 0.00 0.00 0.00 0.00 0.00 0.01 0.00 0.01 0.01 0.01
0.01 0.01 0.01 0.00 0.00 0.00 0.00 0.00 0.00 0.00 0.00 0.00 0.00 0.00 0.00 0.00 0.00 0.00 0.00 0.00 0.00 0.00 0.01 0.01 0.01 0.02 0.02 0.02 0.01 0.01 0.01 0.01 0.01 0.00 0.00 0.00 0.01 0.01 0.01 0.01 0.01 0.00 0.00 0.00 0.00 0.00 0.00 0.01 0.01
0.01 0.01 0.01 0.00 0.00 0.00 0.00 0.00 0.00 0.00 0.00 0.00 0.00 0.00 0.00 0.00 0.00 0.00 0.00 0.00 0.00 0.01 0.01 0.02 0.01 0.02 0.01 0.01 0.01 0.01 0.00 0.00 0.00 0.00 0.00 0.00 0.01 0.01 0.01 0.00 0.00 0.01 0.00 0.00 0.00 0.00 0.00 0.00 0.01
0.02 0.02 0.01 0.00 0.00 0.00 0.00 0.00 0.00 0.00 0.00 0.00 0.00 0.00 0.00 0.00 0.00 0.00 0.00 0.00 0.00 0.01 0.02 0.02 0.01 0.01 0.01 0.01 0.01 0.01 0.01 0.01 0.01 0.01 0.01 0.01 0.01 0.01 0.00 0.01 0.01 0.00 0.00 0.00 0.00 0.00 0.00 0.00 0.00
0.03 0.02 0.01 0.00 0.00 0.00 0.00 0.00 0.00 0.00 0.00 0.00 0.00 0.00 0.00 0.00 0.00 0.01 0.01 0.01 0.01 0.01 0.02 0.02 0.02 0.01 0.01 0.01 0.01 0.01 0.01 0.01 0.01 0.01 0.01 0.01 0.01 0.01 0.01 0.01 0.01 0.00 0.00 0.00 0.00 0.00 0.00 0.00 0.00
0.02 0.01 0.00 0.00 0.00 0.00 0.00 0.00 0.00 0.00 0.00 0.00 0.00 0.00 0.00 0.00 0.00 0.01 0.01 0.01 0.01 0.01 0.02 0.02 0.02 0.02 0.01 0.01 0.01 0.01 0.01 0.01 0.01 0.01 0.01 0.01 0.01 0.01 0.01 0.01 0.01 0.00 0.00 0.00 0.00 0.00 0.00 0.00 0.00
0.02 0.01 0.00 0.00 0.00 0.00 0.00 0.00 0.00 0.00 0.00 0.00 0.00 0.00 0.00 0.00 0.00 0.00 0.01 0.01 0.01 0.01 0.02 0.02 0.03 0.03 0.02 0.01 0.01 0.02 0.01 0.01 0.01 0.01 0.00 0.00 0.01 0.01 0.01 0.01 0.01 0.00 0.00 0.00 0.01 0.01 0.00 0.00 0.00
0.03 0.02 0.01 0.00 0.00 0.00 0.00 0.00 0.00 0.00 0.00 0.00 0.00 0.00 0.00 0.00 0.00 0.01 0.01 0.01 0.01 0.01 0.01 0.02 0.03 0.04 0.05 0.04 0.03 0.02 0.02 0.02 0.02 0.01 0.01 0.01 0.01 0.01 0.01 0.00 0.00 0.01 0.01 0.01 0.01 0.01 0.01 0.00 0.00
0.03 0.02 0.00 0.00 0.00 0.00 0.00 0.00 0.00 0.00 0.00 0.00 0.00 0.00 0.00 0.00 0.00 0.01 0.01 0.01 0.01 0.01 0.01 0.01 0.03 0.04 0.05 0.07 0.06 0.06 0.04 0.03 0.02 0.02 0.01 0.02 0.02 0.01 0.01 0.01 0.01 0.01 0.00 0.01 0.01 0.01 0.01 0.00 0.00
0.03 0.01 0.00 0.00 0.00 0.00 0.00 0.00 0.00 0.00 0.00 0.00 0.00 0.00 0.00 0.00 0.00 0.01 0.00 0.00 0.00 0.01 0.01 0.02 0.03 0.04 0.06 0.06 0.06 0.07 0.05 0.03 0.02 0.02 0.02 0.02 0.02 0.02 0.02 0.02 0.02 0.01 0.00 0.00 0.00 0.00 0.00 0.00 0.00
0.02 0.01 0.00 0.00 0.00 0.00 0.00 0.00 0.00 0.00 0.00 0.00 0.00 0.00 0.00 0.00 0.00 0.00 0.01 0.01 0.01 0.01 0.01 0.02 0.03 0.03 0.05 0.06 0.06 0.06 0.04 0.02 0.01 0.02 0.03 0.02 0.01 0.01 0.01 0.01 0.01 0.01 0.01 0.01 0.01 0.00 0.00 0.00 0.00
0.02 0.01 0.01 0.00 0.00 0.00 0.00 0.00 0.00 0.00 0.00 0.00 0.00 0.00 0.00 0.00 0.00 0.00 0.00 0.00 0.01 0.01 0.01 0.02 0.03 0.03 0.04 0.05 0.05 0.06 0.05 0.04 0.03 0.02 0.02 0.01 0.01 0.00 0.01 0.01 0.01 0.01 0.01 0.01 0.01 0.01 0.00 0.00 0.00
0.02 0.02 0.01 0.00 0.00 0.00 0.00 0.00 0.00 0.00 0.00 0.00 0.00 0.00 0.00 0.00 0.00 0.00 0.00 0.00 0.00 0.01 0.01 0.02 0.02 0.02 0.03 0.04 0.05 0.04 0.05 0.06 0.05 0.04 0.02 0.01 0.01 0.01 0.01 0.01 0.01 0.01 0.01 0.01 0.01 0.01 0.01 0.01 0.00
0.02 0.02 0.01 0.01 0.00 0.00 0.01 0.01 0.01 0.00 0.00 0.00 0.00 0.00 0.00 0.00 0.00 0.00 0.00 0.00 0.00 0.00 0.01 0.01 0.01 0.02 0.03 0.03 0.04 0.05 0.05 0.06 0.06 0.05 0.04 0.03 0.02 0.01 0.01 0.02 0.01 0.01 0.01 0.01 0.01 0.00 0.00 0.00 0.00
0.02 0.02 0.02 0.01 0.01 0.01 0.01 0.01 0.00 0.00 0.00 0.00 0.00 0.00 0.00 0.00 0.00 0.00 0.00 0.00 0.00 0.00 0.00 0.01 0.01 0.01 0.02 0.02 0.03 0.04 0.05 0.06 0.07 0.08 0.06 0.04 0.03 0.02 0.01 0.02 0.02 0.02 0.01 0.01 0.01 0.01 0.00 0.00 0.01
0.03 0.02 0.02 0.01 0.00 0.00 0.01 0.01 0.00 0.00 0.00 0.00 0.00 0.00 0.00 0.00 0.00 0.00 0.00 0.00 0.00 0.00 0.00 0.00 0.01 0.01 0.01 0.01 0.02 0.03 0.05 0.06 0.06 0.06 0.08 0.06 0.05 0.04 0.03 0.03 0.03 0.03 0.02 0.02 0.02 0.01 0.01 0.01 0.01
0.03 0.02 0.02 0.01 0.01 0.01 0.01 0.01 0.00 0.00 0.00 0.00 0.00 0.00 0.00 0.00 0.00 0.00 0.00 0.00 0.00 0.00 0.00 0.00 0.00 0.01 0.01 0.01 0.01 0.02 0.03 0.04 0.05 0.04 0.05 0.06 0.06 0.06 0.05 0.03 0.02 0.02 0.02 0.02 0.02 0.01 0.01 0.01 0.01
0.02 0.02 0.02 0.01 0.01 0.01 0.01 0.01 0.01 0.00 0.00 0.00 0.00 0.00 0.00 0.00 0.00 0.00 0.00 0.00 0.00 0.00 0.00 0.00 0.00 0.00 0.00 0.01 0.01 0.01 0.01 0.02 0.02 0.02 0.02 0.04 0.06 0.07 0.08 0.06 0.04 0.03 0.02 0.02 0.01 0.01 0.01 0.01 0.01
0.01 0.01 0.01 0.01 0.00 0.01 0.01 0.01 0.01 0.00 0.00 0.00 0.00 0.00 0.00 0.00 0.00 0.00 0.00 0.00 0.00 0.00 0.00 0.00 0.00 0.00 0.00 0.00 0.00 0.01 0.01 0.01 0.01 0.02 0.03 0.03 0.05 0.06 0.07 0.09 0.07 0.05 0.03 0.03 0.02 0.02 0.01 0.01 0.01
0.02 0.01 0.01 0.01 0.01 0.00 0.01 0.01 0.00 0.00 0.00 0.00 0.00 0.00 0.00 0.00 0.00 0.00 0.00 0.00 0.00 0.00 0.00 0.00 0.00 0.00 0.00 0.00 0.00 0.01 0.01 0.01 0.01 0.01 0.02 0.03 0.04 0.04 0.04 0.05 0.05 0.07 0.06 0.04 0.03 0.03 0.02 0.02 0.01
0.02 0.01 0.01 0.01 0.01 0.01 0.01 0.02 0.01 0.00 0.00 0.00 0.00 0.00 0.00 0.00 0.00 0.00 0.00 0.01 0.00 0.00 0.00 0.00 0.00 0.00 0.00 0.00 0.00 0.00 0.00 0.00 0.00 0.00 0.01 0.02 0.04 0.04 0.03 0.03 0.03 0.04 0.05 0.04 0.03 0.02 0.02 0.01 0.01
0.01 0.01 0.01 0.01 0.02 0.01 0.01 0.02 0.01 0.00 0.00 0.00 0.00 0.00 0.00 0.00 0.00 0.00 0.00 0.01 0.00 0.00 0.00 0.00 0.00 0.00 0.00 0.00 0.00 0.00 0.01 0.00 0.00 0.01 0.01 0.01 0.02 0.04 0.04 0.02 0.02 0.02 0.03 0.03 0.02 0.01 0.01 0.01 0.01
0.01 0.02 0.02 0.03 0.03 0.03 0.01 0.01 0.02 0.01 0.00 0.00 0.00 0.00 0.00 0.00 0.00 0.00 0.00 0.01 0.01 0.00 0.00 0.00 0.00 0.00 0.00 0.00 0.00 0.00 0.01 0.01 0.01 0.00 0.01 0.01 0.01 0.02 0.02 0.02 0.01 0.01 0.01 0.02 0.02 0.01 0.01 0.01 0.01
0.02 0.03 0.07 0.09 0.07 0.03 0.01 0.01 0.02 0.01 0.01 0.00 0.00 0.00 0.00 0.00 0.00 0.00 0.00 0.00 0.00 0.00 0.00 0.00 0.00 0.00 0.00 0.00 0.00 0.00 0.00 0.01 0.01 0.01 0.01 0.01 0.01 0.00 0.01 0.01 0.01 0.01 0.01 0.02 0.02 0.02 0.02 0.01 0.01
0.03 0.02 0.04 0.05 0.03 0.01 0.01 0.01 0.01 0.02 0.01 0.00 0.00 0.00 0.00 0.00 0.00 0.00 0.00 0.00 0.00 0.00 0.00 0.00 0.00 0.00 0.00 0.00 0.00 0.00 0.00 0.00 0.01 0.01 0.01 0.01 0.01 0.01 0.01 0.00 0.00 0.01 0.01 0.01 0.01 0.02 0.02 0.01 0.01
0.04 0.02 0.02 0.04 0.02 0.02 0.02 0.02 0.01 0.02 0.01 0.00 0.00 0.00 0.00 0.00 0.00 0.00 0.00 0.00 0.00 0.00 0.00 0.00 0.00 0.00 0.00 0.00 0.00 0.00 0.00 0.00 0.00 0.01 0.01 0.01 0.01 0.01 0.01 0.01 0.01 0.00 0.01 0.01 0.01 0.01 0.01 0.01 0.01
0.04 0.03 0.02 0.04 0.04 0.03 0.02 0.02 0.01 0.01 0.02 0.01 0.01 0.00 0.00 0.00 0.00 0.00 0.00 0.00 0.00 0.00 0.00 0.00 0.00 0.00 0.00 0.00 0.00 0.00 0.00 0.00 0.00 0.00 0.01 0.01 0.01 0.01 0.01 0.01 0.01 0.01 0.01 0.01 0.01 0.01 0.01 0.01 0.00
0.03 0.04 0.03 0.03 0.03 0.03 0.02 0.02 0.01 0.01 0.01 0.01 0.01 0.00 0.00 0.00 0.00 0.00 0.00 0.00 0.00 0.00 0.00 0.00 0.00 0.00 0.00 0.00 0.00 0.00 0.00 0.00 0.00 0.00 0.00 0.01 0.01 0.01 0.01 0.01 0.01 0.01 0.01 0.01 0.01 0.01 0.01 0.00 0.00
0.03 0.03 0.03 0.02 0.02 0.02 0.02 0.02 0.01 0.01 0.01 0.01 0.01 0.00 0.00 0.00 0.00 0.00 0.00 0.00 0.00 0.00 0.00 0.00 0.00 0.00 0.00 0.00 0.00 0.00 0.00 0.00 0.00 0.00 0.00 0.00 0.01 0.01 0.01 0.01 0.01 0.01 0.01 0.01 0.01 0.01 0.00 0.00 0.00
MSLP
1013.43 1013.62 1013.74 1013.73 1013.56 1013.21 1012.75 1012.22 1011.71 1011.28 1010.99 1010.84 1010.79 1010.79 1010.78 1010.69 1010.51 1010.25 1009.96 1009.72 1009.62 1009.70 1010.01 1010.52 1011.19 1011.92 1012.65 1013.29 1013.81 1014.19 1014.46 1014.67 1014.87 1015.11 1015.39 1015.72 1016.06 1016.38 1016.64 1016.81 1016.90 1016.91 1016.88 1016.84 1016.81 1016.83 1016.88 1016.95 1017.01
1013.51 1013.67 1013.73 1013.63 1013.36 1012.92 1012.36 1011.75 1011.19 1010.73 1010.43 1010.27 1010.24 1010.26 1010.28 1010.23 1010.09 1009.88 1009.64 1009.46 1009.40 1009.55 1009.91 1010.48 1011.21 1012.00 1012.79 1013.49 1014.06 1014.48 1014.80 1015.04 1015.26 1015.50 1015.78 1016.09 1016.42 1016.72 1016.96 1017.11 1017.19 1017.19 1017.15 1017.11 1017.09 1017.11 1017.17 1017.24 1017.31
1013.57 1013.68 1013.67 1013.49 1013.12 1012.60 1011.97 1011.32 1010.72 1010.26 1009.95 1009.81 1009.80 1009.85 1009.90 1009.89 1009.80 1009.64 1009.46 1009.33 1009.34 1009.53 1009.93 1010.54 1011.30 1012.13 1012.95 1013.69 1014.30 1014.77 1015.12 1015.39 1015.63 1015.88 1016.15 1016.45 1016.75 1017.03 1017.24 1017.38 1017.45 1017.45 1017.43 1017.40 1017.40 1017.44 1017.50 1017.59 1017.65
1013.53 1013.60 1013.52 1013.26 1012.83 1012.25 1011.59 1010.93 1010.33 1009.88 1009.60 1009.48 1009.49 1009.58 1009.66 1009.70 1009.67 1009.57 1009.46 1009.40 1009.46 1009.69 1010.12 1010.74 1011.50 1012.33 1013.15 1013.90 1014.53 1015.02 1015.41 1015.71 1015.97 1016.23 1016.51 1016.79 1017.08 1017.33 1017.52 1017.65 1017.72 1017.73 1017.73 1017.73 1017.76 1017.82 1017.90 1017.99 1018.06
1013.35 1013.36 1013.22 1012.92 1012.45 1011.86 1011.21 1010.57 1010.01 1009.60 1009.35 1009.27 1009.32 1009.44 1009.57 1009.66 1009.70 1009.68 1009.65 1009.66 1009.77 1010.03 1010.47 1011.07 1011.80 1012.59 1013.38 1014.11 1014.74 1015.25 1015.66 1016.00 1016.29 1016.57 1016.85 1017.13 1017.40 1017.64 1017.82 1017.95 1018.02 1018.05 1018.08 1018.11 1018.16 1018.25 1018.35 1018.45 1018.51
1012.98 1012.94 1012.76 1012.43 1011.97 1011.41 1010.81 1010.23 1009.73 1009.38 1009.19 1009.15 1009.23 1009.39 1009.57 1009.73 1009.85 1009.92 1009.98 1010.06 1010.23 1010.52 1010.95 1011.52 1012.19 1012.92 1013.65 1014.34 1014.94 1015.46 1015.89 1016.26 1016.59 1016.90 1017.20 1017.48 1017.75 1017.98 1018.16 1018.29 1018.37 1018.42 1018.47 1018.53 1018.60 1018.70 1018.81 1018.90 1018.96
1012.45 1012.36 1012.15 1011.83 1011.40 1010.91 1010.39 1009.90 1009.49 1009.21 1009.07 1009.07 1009.19 1009.38 1009.61 1009.84 1010.03 1010.20 1010.36 1010.54 1010.77 1011.09 1011.51 1012.03 1012.64 1013.29 1013.95 1014.57 1015.15 1015.66 1016.11 1016.51 1016.88 1017.22 1017.55 1017.85 1018.13 1018.36 1018.54 1018.67 1018.76 1018.83 1018.89 1018.96 1019.04 1019.14 1019.24 1019.31 1019.35
1011.80 1011.66 1011.44 1011.14 1010.77 1010.37 1009.95 1009.57 1009.26 1009.05 1008.96 1008.99 1009.13 1009.35 1009.61 1009.90 1010.18 1010.44 1010.70 1010.98 1011.28 1011.64 1012.06 1012.55 1013.09 1013.66 1014.25 1014.82 1015.36 1015.87 1016.33 1016.77 1017.17 1017.56 1017.91 1018.24 1018.52 1018.76 1018.94 1019.07 1019.17 1019.24 1019.30 1019.37 1019.44 1019.52 1019.59 1019.63 1019.64
1011.10 1010.91 1010.68 1010.42 1010.14 1009.83 1009.53 1009.26 1009.04 1008.89 1008.84 1008.88 1009.02 1009.24 1009.53 1009.85 1010.20 1010.56 1010.92 1011.29 1011.67 1012.08 1012.52 1012.99 1013.49 1014.01 1014.53 1015.06 1015.58 1016.08 1016.57 1017.03 1017.48 1017.89 1018.28 1018.62 1018.92 1019.16 1019.34 1019.47 1019.56 1019.63 1019.68 1019.73 1019.77 1019.81 1019.84 1019.84 1019.81
1010.40 1010.17 1009.95 1009.74 1009.53 1009.34 1009.15 1008.98 1008.84 1008.74 1008.70 1008.74 1008.86 1009.06 1009.34 1009.69 1010.08 1010.52 1010.97 1011.43 1011.90 1012.36 1012.83 1013.31 1013.79 1014.28 1014.78 1015.29 1015.80 1016.31 1016.81 1017.31 1017.78 1018.22 1018.63 1018.98 1019.28 1019.52 1019.70 1019.82 1019.91 1019.96 1019.99 1020.01 1020.02 1020.01 1019.98 1019.94 1019.88
1009.77 1009.50 1009.29 1009.12 1009.00 1008.90 1008.82 1008.74 1008.66 1008.59 1008.56 1008.57 1008.65 1008.81 1009.07 1009.41 1009.84 1010.32 1010.85 1011.39 1011.93 1012.46 1012.98 1013.49 1013.98 1014.47 1014.97 1015.48 1016.00 1016.53 1017.06 1017.57 1018.07 1018.53 1018.94 1019.29 1019.59 1019.82 1019.99 1020.11 1020.18 1020.22 1020.23 1020.22 1020.18 1020.13 1020.06 1019.98 1019.90
1009.21 1008.91 1008.71 1008.59 1008.54 1008.53 1008.54 1008.53 1008.50 1008.46 1008.41 1008.39 1008.43 1008.54 1008.76 1009.09 1009.52 1010.04 1010.61 1011.21 1011.82 1012.41 1012.98 1013.53 1014.06 1014.58 1015.11 1015.64 1016.19 1016.74 1017.29 1017.82 1018.32 1018.78 1019.19 1019.53 1019.81 1020.03 1020.19 1020.30 1020.37 1020.40 1020.39 1020.35 1020.29 1020.20 1020.10 1019.99 1019.89
1008.71 1008.40 1008.21 1008.14 1008.15 1008.21 1008.29 1008.34 1008.36 1008.33 1008.27 1008.22 1008.22 1008.29 1008.47 1008.77 1009.20 1009.73 1010.32 1010.97 1011.62 1012.26 1012.89 1013.48 1014.06 1014.63 1015.20 1015.77 1016.35 1016.92 1017.49 1018.03 1018.53 1018.98 1019.37 1019.70 1019.96 1020.16 1020.31 1020.41 1020.48 1020.50 1020.49 1020.44 1020.35 1020.25 1020.12 1020.00 1019.90
1008.26 1007.94 1007.77 1007.73 1007.79 1007.91 1008.04 1008.15 1008.19 1008.18 1008.13 1008.06 1008.04 1008.09 1008.24 1008.53 1008.94 1009.47 1010.07 1010.74 1011.42 1012.09 1012.76 1013.40 1014.02 1014.64 1015.25 1015.87 1016.48 1017.08 1017.66 1018.21 1018.70 1019.13 1019.49 1019.79 1020.03 1020.22 1020.36 1020.46 1020.53 1020.56 1020.55 1020.50 1020.41 1020.30 1020.17 1020.05 1019.95
1007.81 1007.50 1007.35 1007.34 1007.43 1007.59 1007.76 1007.90 1007.98 1007.98 1007.94 1007.89 1007.86 1007.92 1008.08 1008.36 1008.77 1009.30 1009.91 1010.58 1011.27 1011.96 1012.65 1013.32 1013.98 1014.63 1015.29 1015.94 1016.58 1017.20 1017.79 1018.33 1018.81 1019.22 1019.56 1019.85 1020.07 1020.25 1020.39 1020.49 1020.57 1020.60 1020.60 1020.56 1020.48 1020.37 1020.24 1020.12 1020.03
1007.37 1007.06 1006.93 1006.94 1007.06 1007.24 1007.43 1007.58 1007.67 1007.69 1007.68 1007.65 1007.66 1007.74 1007.93 1008.25 1008.68 1009.22 1009.84 1010.50 1011.19 1011.89 1012.58 1013.26 1013.94 1014.62 1015.30 1015.98 1016.65 1017.28 1017.88 1018.41 1018.88 1019.28 1019.61 1019.88 1020.10 1020.28 1020.42 1020.54 1020.62 1020.67 1020.67 1020.64 1020.56 1020.46 1020.34 1020.23 1020.14
1006.92 1006.64 1006.52 1006.55 1006.67 1006.85 1007.03 1007.17 1007.26 1007.29 1007.29 1007.30 1007.36 1007.50 1007.75 1008.12 1008.60 1009.17 1009.80 1010.47 1011.16 1011.85 1012.53 1013.22 1013.90 1014.60 1015.29 1015.98 1016.66 1017.31 1017.91 1018.44 1018.91 1019.31 1019.64 1019.91 1020.14 1020.33 1020.49 1020.62 1020.71 1020.77 1020.78 1020.75 1020.68 1020.58 1020.46 1020.35 1020.26
1006.50 1006.25 1006.16 1006.19 1006.30 1006.45 1006.59 1006.69 1006.74 1006.76 1006.77 1006.81 1006.92 1007.13 1007.45 1007.89 1008.43 1009.05 1009.72 1010.41 1011.10 1011.78 1012.47 1013.14 1013.83 1014.52 1015.22 1015.92 1016.60 1017.25 1017.86 1018.40 1018.88 1019.29 1019.64 1019.94 1020.19 1020.41 1020.60 1020.75 1020.85 1020.92 1020.94 1020.91 1020.84 1020.74 1020.62 1020.51 1020.41
1006.12 1005.92 1005.85 1005.89 1005.97 1006.07 1006.14 1006.16 1006.15 1006.12 1006.10 1006.15 1006.30 1006.57 1006.96 1007.48 1008.10 1008.78 1009.49 1010.21 1010.92 1011.62 1012.30 1012.98 1013.66 1014.35 1015.05 1015.75 1016.44 1017.09 1017.70 1018.26 1018.76 1019.20 1019.58 1019.93 1020.23 1020.49 1020.72 1020.90 1021.03 1021.10 1021.13 1021.10 1021.03 1020.93 1020.82 1020.71 1020.60
1005.81 1005.66 1005.63 1005.66 1005.71 1005.74 1005.72 1005.63 1005.51 1005.39 1005.32 1005.34 1005.50 1005.80 1006.26 1006.84 1007.53 1008.28 1009.05 1009.82 1010.56 1011.28 1011.98 1012.67 1013.35 1014.05 1014.75 1015.45 1016.14 1016.80 1017.42 1017.99 1018.52 1019.00 1019.44 1019.84 1020.21 1020.53 1020.81 1021.04 1021.20 1021.30 1021.34 1021.32 1021.26 1021.17 1021.07 1020.97 1020.87
1005.55 1005.47 1005.48 1005.51 1005.52 1005.47 1005.33 1005.12 1004.87 1004.63 1004.47 1004.43 1004.55 1004.86 1005.34 1005.98 1006.72 1007.53 1008.36 1009.17 1009.96 1010.71 1011.44 1012.16 1012.86 1013.58 1014.29 1015.00 1015.69 1016.35 1016.99 1017.58 1018.14 1018.67 1019.17 1019.64 1020.08 1020.48 1020.83 1021.12 1021.33 1021.47 1021.53 1021.53 1021.50 1021.43 1021.36 1021.29 1021.22
1005.33 1005.31 1005.36 1005.40 1005.37 1005.24 1004.99 1004.64 1004.25 1003.88 1003.60 1003.47 1003.53 1003.81 1004.29 1004.94 1005.71 1006.55 1007.42 1008.28 1009.11 1009.91 1010.69 1011.44 1012.19 1012.93 1013.67 1014.39 1015.09 1015.76 1016.40 1017.01 1017.60 1018.18 1018.74 1019.28 1019.81 1020.30 1020.73 1021.09 1021.37 1021.56 1021.67 1021.71 1021.71 1021.69 1021.67 1021.65 1021.63
1005.10 1005.14 1005.22 1005.26 1005.19 1004.99 1004.64 1004.18 1003.66 1003.16 1002.76 1002.53 1002.52 1002.75 1003.19 1003.82 1004.59 1005.44 1006.33 1007.21 1008.08 1008.93 1009.75 1010.56 1011.35 1012.13 1012.90 1013.65 1014.36 1015.04 1015.69 1016.32 1016.93 1017.55 1018.16 1018.77 1019.38 1019.95 1020.48 1020.92 1021.27 1021.53 1021.70 1021.81 1021.87 1021.91 1021.95 1021.99 1022.04
1004.84 1004.90 1004.99 1005.01 1004.92 1004.66 1004.24 1003.69 1003.07 1002.48 1001.99 1001.68 1001.60 1001.75 1002.14 1002.73 1003.46 1004.29 1005.17 1006.06 1006.95 1007.83 1008.70 1009.55 1010.40 1011.23 1012.04 1012.81 1013.55 1014.24 1014.90 1015.54 1016.17 1016.80 1017.46 1018.13 1018.81 1019.46 1020.07 1020.60 1021.04 1021.37 1021.61 1021.78 1021.91 1022.01 1022.13 1022.25 1022.38
1004.51 1004.55 1004.61 1004.61 1004.49 1004.19 1003.73 1003.13 1002.48 1001.84 1001.30 1000.94 1000.81 1000.91 1001.24 1001.76 1002.44 1003.22 1004.06 1004.93 1005.81 1006.70 1007.60 1008.50 1009.39 1010.28 1011.13 1011.94 1012.70 1013.41 1014.08 1014.72 1015.36 1016.01 1016.69 1017.41 1018.14 1018.86 1019.54 1020.15 1020.66 1021.06 1021.37 1021.60 1021.79 1021.96 1022.15 1022.34 1022.55
1004.13 1004.09 1004.09 1004.04 1003.88 1003.56 1003.09 1002.50 1001.85 1001.22 1000.70 1000.33 1000.18 1000.25 1000.53 1000.99 1001.60 1002.31 1003.08 1003.90 1004.75 1005.63 1006.53 1007.46 1008.40 1009.33 1010.23 1011.08 1011.87 1012.60 1013.27 1013.92 1014.56 1015.22 1015.92 1016.66 1017.43 1018.19 1018.93 1019.59 1020.16 1020.63 1020.99 1021.27 1021.51 1021.73 1021.96 1022.21 1022.49
1003.71 1003.55 1003.45 1003.33 1003.12 1002.79 1002.34 1001.79 1001.20 1000.64 1000.17 999.86 999.73 999.80 1000.05 1000.46 1000.99 1001.61 1002.30 1003.04 1003.83 1004.67 1005.56 1006.50 1007.46 1008.42 1009.37 1010.26 1011.09 1011.84 1012.54 1013.19 1013.83 1014.50 1015.20 1015.95 1016.73 1017.52 1018.29 1018.99 1019.59 1020.09 1020.49 1020.80 1021.06 1021.30 1021.56 1021.85 1022.16
1003.32 1003.01 1002.78 1002.56 1002.30 1001.97 1001.55 1001.07 1000.57 1000.12 999.75 999.52 999.45 999.54 999.78 1000.15 1000.60 1001.14 1001.73 1002.38 1003.09 1003.87 1004.72 1005.64 1006.61 1007.60 1008.58 1009.51 1010.38 1011.17 1011.88 1012.55 1013.20 1013.87 1014.56 1015.31 1016.09 1016.88 1017.66 1018.37 1018.99 1019.50 1019.91 1020.22 1020.48 1020.72 1020.98 1021.27 1021.60
1003.05 1002.57 1002.20 1001.88 1001.57 1001.23 1000.85 1000.45 1000.06 999.72 999.48 999.35 999.35 999.48 999.72 1000.04 1000.44 1000.88 1001.37 1001.91 1002.53 1003.22 1004.02 1004.90 1005.86 1006.86 1007.87 1008.84 1009.74 1010.57 1011.32 1012.02 1012.68 1013.34 1014.03 1014.77 1015.53 1016.31 1017.07 1017.77 1018.38 1018.89 1019.29 1019.59 1019.84 1020.06 1020.30 1020.57 1020.89
1002.95 1002.33 1001.85 1001.44 1001.08 1000.74 1000.40 1000.07 999.77 999.54 999.40 999.37 999.43 999.59 999.83 1000.12 1000.44 1000.79 1001.18 1001.62 1002.13 1002.74 1003.46 1004.30 1005.23 1006.22 1007.24 1008.24 1009.18 1010.05 1010.84 1011.56 1012.24 1012.91 1013.60 1014.31 1015.05 1015.80 1016.53 1017.21 1017.80 1018.29 1018.67 1018.96 1019.19 1019.39 1019.60 1019.85 1020.15
Thickness
5686 5691 5696 5696 5694 5696 5707 5721 5727 5725 5728 5736 5740 5743 5746 5747 5745 5741 5747 5755 5756 5755 5753 5748 5747 5746 5745 5744 5743 5743 5742 5741 5741 5740 5740 5739 5738 5738 5737 5737 5736 5735 5735 5734 5734 5733 5733 5732 5732
5681 5685 5687 5688 5687 5693 5706 5719 5719 5724 5728 5729 5731 5735 5738 5740 5744 5743 5745 5748 5751 5750 5749 5745 5742 5741 5741 5740 5739 5738 5738 5737 5737 5736 5735 5735 5734 5733 5733 5732 5731 5731 5730 5730 5729 5729 5729 5728 5727
5674 5678 5678 5680 5684 5698 5708 5714 5718 5719 5721 5723 5725 5729 5733 5734 5737 5739 5741 5743 5745 5745 5744 5740 5738 5737 5736 5735 5734 5734 5733 5733 5732 5731 5731 5730 5729 5729 5728 5727 5727 5726 5725 5725 5725 5724 5724 5723 5722
5668 5668 5670 5673 5683 5697 5704 5708 5709 5710 5712 5717 5721 5721 5725 5728 5731 5735 5736 5738 5739 5739 5738 5735 5733 5732 5731 5730 5729 5729 5728 5728 5727 5727 5726 5725 5724 5724 5723 5722 5722 5721 5720 5720 5720 5719 5719 5718 5717
5660 5662 5660 5666 5680 5691 5697 5700 5701 5705 5708 5712 5715 5716 5717 5720 5725 5728 5729 5731 5732 5732 5731 5729 5726 5726 5725 5724 5724 5723 5723 5722 5722 5721 5721 5720 5719 5718 5718 5717 5716 5716 5715 5715 5714 5714 5713 5713 5712
5650 5656 5658 5666 5677 5684 5689 5693 5695 5699 5703 5705 5708 5710 5711 5713 5717 5720 5722 5724 5725 5725 5724 5722 5720 5720 5719 5719 5718 5717 5717 5717 5716 5716 5715 5714 5714 5713 5712 5711 5711 5710 5710 5710 5709 5709 5708 5707 5706
5644 5648 5657 5667 5671 5675 5681 5687 5689 5694 5696 5699 5705 5704 5705 5707 5709 5712 5714 5716 5717 5718 5718 5717 5715 5714 5713 5713 5712 5712 5711 5711 5710 5710 5709 5709 5708 5707 5706 5706 5705 5705 5704 5704 5703 5702 5702 5701 5700
5641 5643 5648 5657 5663 5669 5675 5678 5684 5687 5690 5694 5697 5698 5698 5699 5701 5704 5706 5707 5709 5710 5711 5711 5710 5710 5709 5708 5706 5706 5705 5705 5704 5704 5703 5703 5702 5701 5700 5700 5699 5699 5698 5698 5697 5696 5696 5695 5694
5630 5631 5642 5652 5657 5664 5668 5669 5673 5679 5682 5683 5687 5691 5693 5692 5693 5695 5697 5698 5700 5701 5704 5704 5705 5704 5704 5703 5701 5700 5700 5699 5698 5698 5697 5697 5697 5697 5695 5694 5693 5693 5692 5692 5691 5691 5690 5689 5688
5620 5625 5641 5650 5655 5658 5659 5663 5665 5669 5671 5674 5676 5679 5682 5683 5685 5688 5690 5691 5693 5694 5696 5697 5698 5698 5698 5697 5696 5695 5695 5694 5694 5693 5693 5692 5692 5691 5690 5688 5687 5687 5686 5686 5685 5684 5684 5684 5685
5615 5623 5633 5637 5644 5647 5649 5652 5656 5661 5664 5671 5673 5673 5673 5676 5679 5681 5684 5686 5686 5687 5688 5690 5690 5691 5691 5691 5691 5690 5689 5689 5689 5688 5687 5687 5686 5685 5684 5683 5683 5682 5681 5681 5680 5680 5680 5679 5678
5607 5615 5622 5627 5631 5635 5640 5643 5645 5651 5659 5666 5668 5667 5667 5669 5672 5675 5677 5679 5680 5680 5681 5682 5683 5684 5684 5685 5685 5685 5684 5684 5683 5682 5681 5681 5680 5680 5679 5679 5678 5677 5676 5676 5675 5674 5674 5673 5672
5598 5604 5610 5616 5620 5625 5628 5632 5636 5641 5648 5654 5657 5657 5660 5663 5665 5668 5671 5673 5673 5674 5675 5676 5677 5677 5678 5678 5679 5679 5678 5678 5677 5676 5675 5675 5675 5674 5674 5674 5672 5671 5671 5670 5669 5669 5667 5666 5665
5591 5594 5600 5605 5611 5615 5617 5621 5626 5633 5638 5642 5645 5649 5653 5655 5658 5660 5662 5665 5666 5667 5668 5669 5670 5671 5671 5672 5672 5672 5672 5671 5671 5670 5669 5669 5668 5668 5668 5667 5666 5665 5664 5663 5662 5661 5660 5659 5658
5582 5584 5589 5596 5602 5606 5610 5611 5618 5624 5628 5632 5637 5641 5644 5647 5650 5652 5655 5657 5659 5661 5662 5662 5663 5664 5665 5665 5666 5666 5665 5665 5665 5664 5663 5662 5662 5662 5661 5661 5660 5659 5657 5656 5655 5654 5653 5652 5651
5572 5575 5579 5588 5593 5597 5601 5606 5612 5615 5619 5624 5629 5633 5635 5638 5641 5644 5647 5649 5652 5653 5655 5656 5656 5657 5658 5659 5659 5659 5659 5659 5659 5658 5657 5656 5655 5655 5655 5654 5653 5652 5651 5650 5648 5647 5646 5645 5644
5562 5568 5574 5578 5584 5588 5593 5598 5601 5603 5609 5615 5619 5624 5626 5629 5632 5635 5638 5641 5644 5646 5648 5649 5649 5651 5651 5651 5652 5652 5652 5652 5652 5651 5650 5649 5648 5648 5648 5647 5646 5644 5643 5643 5641 5640 5639 5638 5636
5556 5563 5566 5570 5574 5578 5582 5587 5591 5595 5600 5606 5611 5615 5618 5621 5624 5627 5630 5633 5635 5638 5640 5642 5642 5643 5644 5644 5645 5645 5645 5645 5645 5644 5644 5643 5642 5641 5641 5640 5639 5637 5636 5635 5634 5632 5630 5629 5628
5551 5554 5557 5562 5564 5568 5574 5579 5584 5588 5590 5597 5602 5607 5611 5614 5617 5619 5621 5624 5627 5629 5632 5634 5635 5636 5636 5637 5638 5638 5639 5638 5638 5637 5637 5636 5636 5635 5634 5633 5632 5630 5630 5628 5627 5624 5623 5621 5619
5540 5544 5548 5550 5553 5558 5564 5569 5575 5579 5584 5589 5594 5599 5604 5606 5609 5611 5613 5616 5619 5621 5624 5626 5627 5628 5629 5630 5631 5631 5632 5631 5631 5630 5630 5629 5629 5628 5627 5627 5625 5624 5622 5621 5619 5616 5614 5612 5610
5532 5538 5540 5540 5542 5549 5554 5561 5567 5572 5576 5579 5584 5590 5596 5599 5602 5603 5605 5608 5610 5613 5615 5617 5619 5620 5622 5622 5622 5623 5623 5623 5623 5623 5623 5623 5622 5621 5620 5619 5619 5617 5616 5614 5611 5609 5607 5605 5603
5524 5530 5531 5531 5536 5544 5549 5557 5568 5570 5569 5572 5577 5582 5587 5591 5594 5596 5597 5599 5602 5604 5606 5609 5611 5612 5613 5614 5616 5618 5619 5620 5619 5618 5618 5617 5615 5614 5613 5612 5611 5610 5609 5607 5605 5602 5600 5598 5597
5516 5520 5522 5524 5529 5533 5542 5546 5563 5561 5564 5569 5573 5576 5579 5583 5585 5587 5589 5591 5592 5594 5596 5600 5602 5604 5605 5607 5608 5610 5612 5613 5612 5611 5610 5610 5609 5607 5606 5605 5604 5603 5601 5600 5597 5596 5594 5592 5591
5508 5511 5515 5518 5521 5522 5539 5543 5553 5556 5561 5565 5567 5569 5571 5574 5576 5578 5579 5581 5583 5585 5587 5590 5593 5595 5597 5599 5600 5602 5604 5605 5604 5603 5603 5603 5602 5600 5599 5597 5596 5595 5594 5592 5590 5589 5588 5586 5584
5504 5507 5507 5509 5513 5528 5534 5535 5544 5547 5548 5554 5558 5561 5564 5566 5567 5569 5570 5572 5574 5576 5579 5582 5585 5587 5589 5590 5592 5594 5595 5596 5597 5597 5597 5596 5595 5594 5592 5590 5589 5588 5587 5585 5584 5582 5581 5579 5578
5498 5504 5506 5511 5522 5528 5521 5530 5539 5533 5535 5542 5548 5552 5554 5557 5559 5560 5562 5563 5565 5567 5569 5573 5576 5578 5580 5582 5583 5585 5586 5588 5589 5589 5589 5589 5588 5587 5585 5583 5582 5581 5579 5578 5577 5576 5574 5572 5570
5489 5496 5500 5501 5508 5515 5526 5527 5527 5525 5528 5532 5537 5540 5543 5546 5548 5550 5552 5554 5556 5558 5560 5563 5566 5568 5570 5572 5574 5576 5578 5579 5581 5581 5581 5580 5580 5578 5577 5576 5575 5574 5572 5571 5570 5569 5567 5565 5564
5484 5489 5491 5496 5503 5516 5522 5520 5526 5521 5523 5525 5527 5529 5531 5533 5536 5539 5541 5543 5546 5548 5550 5553 5555 5558 5561 5563 5565 5567 5569 5571 5572 5572 5573 5572 5571 5570 5569 5568 5568 5566 5565 5564 5563 5562 5560 5558 5557
5473 5477 5484 5492 5498 5509 5515 5519 5513 5513 5514 5516 5518 5520 5521 5523 5525 5528 5531 5534 5536 5539 5541 5543 5546 5548 5551 5553 5556 5558 5560 5562 5563 5564 5564 5564 5564 5563 5562 5561 5560 5559 5558 5557 5556 5555 5552 5551 5549
5467 5473 5479 5485 5485 5494 5505 5505 5499 5502 5504 5505 5507 5509 5511 5512 5515 5517 5520 5523 5526 5529 5532 5534 5536 5538 5541 5543 5546 5549 5551 5553 5555 5556 5556 5556 5556 5555 5554 5553 5552 5552 5551 5550 5549 5547 5545 5544 5542